CZ-6A DEB

Satellite information

Favourite Embed

Satellite Type and Status

DEBRISIN ORBIT

Key statistics

Satellite CZ-6A DEB at a glance.

Uptime

273

Days in orbit

Revolutions

≈ 14.2

Per day

Orbit

LEO

Low Earth Orbit

Inclination

89.0

Latest

Satellite identification and parameters

Extended collection of information and parameters for CZ-6A DEB.

Object identification

Identified? True

Debris? True

Object name: CZ-6A DEB

International designator: 2024-140MS

Object number (NORAD): 61076

Object ID (CCSDS): 61076

Country: PEOPLES REPUBLIC OF CHINA (PRC)

Current information (Y/N): Y

RCS size: SMALL

Orbital parameters

Period: 101.48 minutes

Inclination: 89.0223 deg

SMA: 7206.896 km

Apoapsis: 865.848 km

Periapsis: 791.674 km

RAAN: 321.3487 deg

Eccentricy: 0.005146

Argument of periapsis: 62.1137 deg

Mean anomaly: 298.5251 deg

Mean motion: 14.18993392 rev/day

Mean motion (dot): 0.00001711 rev/day2

B* drag term: 0.00080295 1/REarth

Two-line elements (TLE)

Creation date: May 6, 2025, 3:54 a.m.

Reference frame: TEME

Reference center: EARTH

Epoch: May 5, 2025, 7:23 p.m. UTC

TLE line 0: 0 CZ-6A DEB

TLE line 1: 1 61076U 24140MS 25125.80783546 .00001711 00000-0 80295-3 0 9994

TLE line 2: 2 61076 89.0223 321.3487 0051460 62.1137 298.5251 14.18993392 36369

Live tracking on map

Real-time ground track for satellite CZ-6A DEB.

In-orbit conjunctions

A list of the most updated potential collisions computed for object CZ-6A DEB.

Target Orbit TCA Probability of collision Miss distance Type
CZ-6A DEB SSO 2025-04-27 17:30:20 0.0001033642 281.0 (m) DEBRIS
THOR BURNER 2 R/B SSO 2025-01-07 08:14:31 0.0005348993 214.0 (m) ROCKET BODY
CZ-6A DEB LEO 2024-11-11 01:44:20 0.0009923461 269.0 (m) DEBRIS
FENGYUN 1C DEB SSO 2024-10-14 21:38:28 0.0001280132 328.0 (m) DEBRIS
FENGYUN 1C DEB SSO 2024-10-07 21:57:24 0.0001716658 540.0 (m) DEBRIS

Associated space launch

18 Low Earth Orbit communication satellites with Ku, Q and V band payloads for the G60 constellation operated by Shanghai Spacecom Satellite Technology (SSST) with funding backed by the Shanghai local government. Initial constellation will consist of 1296 satellites by 2027 with long term plans to expand it to 12000 satellites.

CZ-6A DEB was lifted into orbit during the mission ‘Long March 6A | G60 Polar Group 01’, on board a Long March 6A space rocket.

The launch took place on Aug. 6, 2024, 6:42 a.m. from Launch Complex 9A.

For more information about the launch, click the button.

Launch to space Long March 6A | G60 Polar Group 01
Long March 6A | G60 Polar Group 01

Agency: N/A

Status: Launch Successful

Launch date: Aug. 6, 2024, 6:42 a.m. UTC

Rocket: Long March 6A

Launch pad: Launch Complex 9A

Location: Taiyuan Satellite Launch Center, People's Republic of China

...

Latest news about this satellite

News about space launch
Brightness of first Chinese broadband constellation satellites alarms astronomers

The first satellites of a Chinese broadband constellation are significantly brighter than those of Western systems, posing a new challenge for astronomers.

News about space launch
Chinese rocket stage breaks up into cloud of more than 700 pieces of space debris

HELSINKI — A Chinese Long March 6A rocket’s upper stage has fragmented into a cloud of over 700 pieces of space debris, adding to concerns about long-term orbital safety. China […]

News about space launch
China's Thousand Sails Megaconstellation Kicks Off with Dangerous Debris Field

China's Thousand Sails Megaconstellation Kicks Off with Dangerous Debris Field


Newsletter sign-up

Weekly statistics, charts and insights to help you stay on top of the space industry.